Current Version              Previous Version:    01  02  03  04  05  06  07  08  09  10  11  12  13  14  15  16  17  18  19  20  21  22  23  24  25  26  27  28  29  30  
   31  32  33  34  35  36  37  38  39  40  41  42  43  44  45  46  47  48  49  50  51  52  53  54  55  56  57  58  59  60  

[Printable]
405
ASUS44 KFWD 010701
RWRTX
NORTH TEXAS HOURLY WEATHER ROUNDUP
NATIONAL WEATHER SERVICE FORT WORTH TX
200 AM CDT FRI AUG 01 2014

NOTE: "FAIR" INDICATES FEW OR NO CLOUDS BELOW 12,000 FEET WITH NO
SIGNIFICANT WEATHER AND/OR OBSTRUCTIONS TO VISIBILITY.

TXZ118-119-010800-
DALLAS/FORT WORTH METROPLEX

CITY           SKY/WX    TMP DP  RH WIND       PRES   REMARKS
DFW AIRPORT    CLOUDY    71  66  84 N10       30.02F
DALLAS LOVE    CLOUDY    71  66  84 N7        30.02S
FTW MEACHAM    CLOUDY    70  65  84 NW7       30.03F
DAL-EXECUTIVE  CLOUDY    71  66  84 N8        30.02S
FTW-ALLIANCE   CLOUDY    69  66  90 NW3       30.03F
FTW-NAS-JRB    CLOUDY    72  64  76 NW7       30.08S
ARLINGTON      CLOUDY    72  65  78 N10       30.02F
GRAND PRAIRIE  CLOUDY    71  64  78 NW9       30.04S
ADDISON        CLOUDY    70  65  84 N6        30.04F
MESQUITE       CLOUDY    69  67  94 N5        30.01S
LANCASTER      CLOUDY    69  65  84 N7        30.02S
$$

TXZ091>094-102>105-117-120-121-131>134-010800-
NORTH CENTRAL TEXAS

CITY           SKY/WX    TMP DP  RH WIND       PRES   REMARKS
SHRMAN/DENISON CLOUDY    68  66  93 NE5       30.05F
GAINESVILLE    CLOUDY    68  66  94 N3        30.07F
BOWIE          PTCLDY    66  65  96 NW3       30.07S
BRIDGEPORT     CLOUDY    68  64  84 CALM      30.08F
DECATUR        CLOUDY    67  66  97 NW3       30.06F
DENTON         CLOUDY    70  67  90 N5        30.04F
MCKINNEY       CLOUDY    68  67  96 N7        30.03S FOG
GREENVILLE     CLOUDY    68  66  94 N3        30.01S FOG
ROCKWALL       CLOUDY    68  67  99 N7        30.00F
TERRELL        CLOUDY    70  69  97 N7        30.01S FOG
WAXAHACHIE     CLOUDY    69  64  83 N8        30.03S
CLEBURNE       CLOUDY    70  68  94 NW8       30.05F
GRANBURY       CLOUDY    69  64  84 NW3       30.07S
$$

TXZ083>090-098>101-113>116-127>130-139>142-154-155-010800-
WESTERN NORTH TEXAS

CITY           SKY/WX    TMP DP  RH WIND       PRES   REMARKS
WICHITA FALLS  CLOUDY    70  67  90 E3        30.07F
WF-KICKAPOO    CLOUDY    71  67  89 CALM      30.09F
VERNON         PTCLDY    68  64  86 CALM      30.11S
ABILENE        PTCLDY    71  63  75 CALM      30.11S
BRECKENRIDGE   CLOUDY    74  64  71 E5        30.08F
GRAHAM         MOCLDY    68  64  86 CALM      30.07F
MINERAL WELLS  CLOUDY    68  65  90 N3        30.05F
STEPHENVILLE   PTCLDY    67  62  85 N6        30.10S
COMANCHE       CLEAR     68  63  84 NE3       30.07F
BROWNWOOD      PTCLDY    72  64  78 N3        30.07F
COLEMAN        CLOUDY    72  63  72 N3        30.08F
BRADY          CLEAR     68  63  83 N5        30.07F
$$

TXZ143>147-156>162-174-175-010800-
CENTRAL TEXAS

CITY           SKY/WX    TMP DP  RH WIND       PRES   REMARKS
WACO           CLOUDY    73  65  75 N9        30.01S
WACO-MCGREGOR  CLOUDY    73  63  68 N8        30.03S
HILLSBORO      CLOUDY    70  65  83 N8        30.01S
CORSICANA      CLOUDY    70  68  93 N10       30.00F FOG
MEXIA          CLOUDY    69  68  97 N9        29.99S FOG
CAMERON        CLOUDY    73  67  79 NW6       29.99F
TEMPLE         CLOUDY    72  61  68 N5        30.00F
KILLEEN        NOT AVBL
KILLEEN-SKYLRK PTCLDY    70  61  73 N5        30.01S
FORT HOOD      PTCLDY    72  65  78 N3        30.02F
GATESVILLE     CLEAR     70  64  83 N7        30.05F
HAMILTON       CLEAR     68  63  85 N8        30.06F
LAMPASAS       CLEAR     71  66  84 N6        30.03F
$$

TXZ095>097-106>112-122>126-135>138-148>153-164>167-010800-
EAST TEXAS

CITY           SKY/WX    TMP DP  RH WIND       PRES   REMARKS
PARIS          CLOUDY    66  63  88 NE9       30.03F
SULPHUR SPRNGS CLOUDY    69  69  99 NE6       30.03F FOG
CLARKSVILLE    CLOUDY    68  67  98 NE5       30.02F
MOUNT PLEASANT CLOUDY    69  68  96 NE5       30.02S
GILMER         CLOUDY    70  70 100 NE6       30.00S
MINEOLA        CLOUDY    72  70  94 CALM      30.00S
TYLER          CLOUDY    70  68  93 N7        29.97F FOG
LONGVIEW       CLOUDY    70  67  90 E10       29.96S
MARSHALL       CLOUDY    71  68  92 E5        29.99F
ATHENS         CLOUDY    70  70 100 N5        29.97F FOG
JACKSONVILLE   FOG       72  71  97 NW6       29.99S VSB 1/2
HENDERSON      CLOUDY    71  71  98 E7        29.96F
NACOGDOCHES    CLOUDY    73  72  94 CALM      29.96S
LUFKIN         MOCLDY    76  72  87 SE3       29.95S
$$

SUPPLEMENTAL OBSERVATIONS (CENTRAL)

CITY           SKY/WX    TMP DP  RH WIND       PRES   REMARKS
$$

SUPPLEMENTAL OBSERVATIONS (WEST)

CITY           SKY/WX    TMP DP  RH WIND       PRES   REMARKS
$$

SUPPLEMENTAL OBSERVATIONS (EAST)

CITY           SKY/WX    TMP DP  RH WIND       PRES   REMARKS
$$

SUPPLEMENTAL OBSERVATIONS ARE A COLLECTION OF AUTOMATED INSTRUMENTS
THAT ARE MAINTAINED BY A VARIETY OF FEDERAL AND STATE AGENCIES.
CERTAIN ELEMENTS...SUCH AS HUMIDITY VALUES AND SUSTAINED WIND
SPEEDS...MAY BE APPROXIMATED.